Flag for Japan

Past Weather in 35°38'13.2"N, 139°44'00.6"E, Japan — Yesterday and Last 2 Weeks

Now
68 °F

Mild.


Feels Like: 68 °F
Forecast: 76 / 70 °F
Wind: 7 mph from Northwest

Location: Tokyo
Current Time: Sep 25, 2020 at 8:20:58 pm
Latest Report: Sep 25, 2020 at 7:00 pm
Visibility: N/A
Pressure29.63 "Hg
Humidity: 97%
Dew Point: 67 °F
Location of 35°38'13.2"N, 139°44'00.6"ELocation

Past Weather in 35°38'13.2"N, 139°44'00.6"E — Graph

°F

35°38'13.2"N, 139°44'00.6"E Temperature Yesterday

Maximum temperature yesterday: 70 °F (at 2:00 pm)
Minimum temperature yesterday: 64 °F (at 2:00 am)
Average temperature yesterday: 66 °F

High & Low Weather Summary for the Past Weeks

 TemperatureHumidityPressure
High92 °F (Sep 18, 1:00 pm)100% (Sep 12, 2:00 am)30.07 "Hg (Sep 12, 2:00 am)
Low64 °F (Sep 25, 6:00 am)54% (Sep 21, 2:00 pm)29.62 "Hg (Sep 25, 4:00 pm)
Average74 °F85%29.91 "Hg
* Reported Sep 10 7:00 pm — Sep 25 7:00 pm, 35°38'13.2"N, 139°44'00.6"E. Weather by CustomWeather, © 2020

Note: Actual official high and low records may vary slightly from our data, if they occured in-between our weather recording intervals... More about our weather records

35°38'13.2"N, 139°44'00.6"E Weather History for the Previous 24 Hours

Scroll right to see more
 ConditionsComfort  
Time TempWeatherWind HumidityBarometerVisibility
7:00 pm
Fri, Sep 25
68 °FMild.7 mph97%29.63 "HgN/A
6:00 pm68 °FOvercast.7 mph98%29.62 "Hg6 mi
5:00 pm68 °FMild.7 mph99%29.63 "HgN/A
4:00 pm68 °FMild.7 mph99%29.62 "HgN/A
3:00 pm69 °FLight rain. Overcast.7 mph99%29.65 "Hg2 mi
2:00 pm68 °FMild.8 mph98%29.65 "HgN/A
1:00 pm68 °FMild.10 mph98%29.67 "HgN/A
12:00 pm67 °FLight rain. Overcast.9 mph99%29.70 "Hg2 mi
11:00 am67 °FMild.9 mph97%29.72 "HgN/A
10:00 am67 °FMild.9 mph97%29.76 "HgN/A
9:00 am66 °FLight rain. Low clouds.5 mph98%29.80 "Hg2 mi
8:00 am65 °FMild.6 mph99%29.82 "HgN/A
7:00 am65 °FMild.10 mph94%29.84 "HgN/A
6:00 am64 °FLight rain. Low clouds.7 mph97%29.84 "Hg1 mi
5:00 am64 °FMild.7 mph96%29.85 "HgN/A
4:00 am65 °FMild.7 mph92%29.86 "HgN/A
3:00 am66 °FLight rain. Overcast.7 mph82%29.86 "Hg4 mi
2:00 am67 °FMild.8 mph81%29.88 "HgN/A
1:00 am67 °FMild.9 mph81%29.90 "HgN/A
12:00 am66 °FMild.7 mph83%29.90 "HgN/A
11:00 pm
Thu, Sep 24
65 °FMild.7 mph90%29.93 "HgN/A
10:00 pm66 °FMild.6 mph86%29.92 "HgN/A
9:00 pm65 °FOvercast.7 mph90%29.94 "Hg6 mi
8:00 pm65 °FMild.6 mph92%29.95 "HgN/A
Weather by CustomWeather, © 2020

See weather overview